Location: Krasnoyarskiy Pitomnik
(51.1333°N, 71.6167°E)
Time: 10:05:38
(UTC+00:00)

Cosmos 371 Rocket - Pass Details

Date: 22 October 2021
Orbit: 684 x 699 km, 74.0° (Epoch: 06 December)

Event Time Altitude Azimuth Distance (km) Brightness Sun altitude
Exits shadow 23:48:46 42° 275° (W) 997 3.6 -19.7°
Maximum altitude 23:49:22 44° 254° (WSW) 962 3.5 -19.6°
Drops below altitude 10° 23:53:58 10° 183° (S) 2,153 5.7 -18.9°
Sets 23:56:21 0° 177° (S) 3,063 6.6 -18.5°
